Wind_Speed
55 59 49 44 43 42 40 37 32 28 24 21 18 16 13 12 12 18 22 21 20 8 12 13 9 6 5 6 5 7 5 1 3 2 4 4 4 6 3 4 7 8 7 4 3 1 8 10 7 7 4 5 3 6
61 62 52 48 44 46 42 39 34 30 25 22 20 18 15 13 12 13 19 20 19 10 8 17 20 16 12 8 7 11 3 4 8 3 1 2 3 2 4 4 2 3 7 6 10 7 3 20 13 14 12 10 7 7
59 60 60 53 47 49 43 41 36 32 28 23 21 19 16 13 12 12 14 19 18 14 15 24 20 21 27 20 11 4 3 5 4 5 5 2 3 4 4 6 4 4 5 3 1 5 13 25 27 31 31 23 18 11
56 60 64 57 49 51 47 43 39 34 30 25 22 21 17 13 11 11 10 14 19 4 4 11 15 26 23 17 17 16 17 11 5 5 5 3 2 6 3 2 4 3 9 5 6 12 25 29 20 15 20 26 32 29
50 63 67 58 50 52 48 43 42 37 31 27 24 21 17 14 11 10 10 14 17 13 2 7 11 10 14 15 15 20 20 19 12 3 1 3 3 2 2 1 5 9 6 5 6 11 5 14 12 21 20 25 21 23
48 58 66 62 51 50 49 46 43 38 33 29 25 22 18 15 11 8 5 15 18 18 2 2 4 7 9 12 13 12 17 16 11 6 6 6 6 5 2 5 8 26 30 29 22 29 23 27 32 35 34 29 23 19
26 59 67 64 54 50 50 48 44 40 33 28 26 21 18 15 14 8 3 5 14 19 4 4 5 3 5 8 6 9 11 8 9 5 6 4 6 8 2 15 31 27 24 24 28 29 26 28 27 21 20 19 20 22
34 30 66 67 57 50 50 47 45 40 32 28 25 20 17 14 12 11 8 9 13 14 5 2 3 3 3 4 5 6 6 9 7 4 3 3 4 5 7 32 30 29 32 36 44 46 48 51 49 47 45 40 36 32
23 25 65 67 60 51 51 47 47 39 32 28 23 21 13 9 8 9 13 10 14 6 4 4 3 4 6 4 4 5 5 1 3 3 5 6 3 9 4 11 26 30 33 41 43 41 43 48 47 46 42 41 38 36
30 27 59 68 58 54 53 51 47 42 35 31 24 9 7 13 16 17 7 9 8 7 6 5 6 3 6 4 2 4 3 2 1 5 5 5 10 26 30 38 38 41 46 43 37 39 39 43 47 47 44 41 36 34
34 34 56 67 62 58 55 53 50 46 41 30 12 5 19 28 10 4 6 4 6 3 8 7 10 4 8 3 3 4 2 2 2 3 3 3 4 2 18 16 14 22 31 37 40 44 42 38 39 40 38 32 29 28
30 34 68 74 65 59 57 59 54 54 35 21 15 25 22 6 5 4 4 2 5 5 8 8 8 10 6 4 3 4 2 2 5 3 2 3 3 18 23 23 21 19 17 21 24 32 40 43 45 45 46 48 49 45
28 52 74 73 62 62 62 60 60 45 38 31 10 7 6 4 4 8 9 4 4 9 11 11 4 9 5 7 2 3 3 4 2 3 4 3 9 20 24 27 27 24 21 20 22 20 24 33 34 38 41 41 39 40
42 75 76 66 61 61 66 67 59 51 39 8 10 7 7 5 6 5 4 4 8 13 21 18 8 5 5 4 3 4 3 1 3 3 4 2 12 17 21 25 28 31 29 27 26 25 23 22 26 31 32 30 33 33
33 69 57 61 66 67 72 67 57 49 14 7 8 6 7 5 4 10 10 14 14 24 23 11 5 4 2 4 3 3 3 4 4 4 2 4 11 14 19 24 28 30 33 33 30 29 27 24 22 23 23 26 30 29
13 36 52 65 62 71 69 61 50 36 8 3 4 4 3 6 5 10 15 15 25 26 17 7 3 4 5 3 3 6 3 6 3 2 2 5 11 14 17 20 22 25 30 33 32 30 29 26 22 20 18 17 20 22
24 17 59 60 70 69 64 55 33 6 6 5 3 9 9 5 12 13 21 21 27 23 3 4 8 6 3 3 4 5 5 2 10 10 2 7 12 15 17 18 21 21 24 28 30 30 27 26 21 18 14 11 13 15
28 38 68 71 74 65 43 26 9 11 6 5 5 9 17 6 18 21 16 27 20 14 11 4 4 3 4 4 4 3 5 9 11 7 4 11 15 15 16 17 19 19 22 22 25 28 28 27 25 21 16 12 9 9
35 70 76 79 71 45 11 9 6 6 4 6 7 11 13 7 16 23 19 29 13 16 11 8 3 5 5 6 5 9 10 11 9 7 11 19 20 18 19 19 18 19 19 21 22 24 27 25 24 22 18 14 11 9
67 78 78 68 52 19 8 6 10 6 6 8 10 13 7 5 14 18 20 26 18 10 4 3 5 7 7 9 10 12 10 7 7 12 20 22 21 19 19 20 20 19 20 21 20 22 26 24 23 23 20 16 13 10
76 72 62 49 29 12 8 8 7 6 9 6 13 15 5 12 11 15 14 21 10 7 3 19 18 16 13 8 7 9 10 11 13 16 21 24 21 21 20 19 17 17 20 21 21 21 19 22 26 24 21 18 15 12
47 49 44 31 10 7 7 5 10 11 6 9 15 8 7 5 5 11 13 13 8 21 22 22 20 22 24 25 25 23 21 20 21 18 18 20 21 20 19 17 16 17 16 15 16 20 21 21 21 22 21 16 14 13
46 37 14 7 7 6 7 9 5 3 4 5 8 3 1 4 7 15 6 10 12 26 28 30 34 34 36 34 30 27 25 22 21 17 16 15 15 15 16 13 11 14 16 13 13 15 16 17 20 20 17 17 16 13
30 7 5 5 5 4 8 3 5 6 5 3 3 3 2 7 12 5 4 6 11 16 18 21 24 28 29 27 26 23 19 17 15 15 14 13 11 7 6 7 8 10 13 16 14 14 15 15 15 16 17 16 16 16
7 4 6 5 5 5 4 3 3 2 3 3 4 1 2 7 2 4 4 5 17 20 18 17 20 24 25 21 18 15 14 14 13 12 9 7 6 6 6 8 10 9 11 14 14 16 17 16 15 15 15 15 15 14
5 1 3 4 3 4 5 5 6 5 4 4 5 5 5 3 2 6 3 6 13 13 16 17 18 23 24 22 19 16 16 12 12 12 11 10 10 10 12 13 15 14 13 13 15 17 19 19 19 18 16 15 15 15
4 3 3 5 8 10 5 5 7 4 5 6 4 4 3 4 6 4 7 10 10 13 14 11 10 14 15 15 17 17 16 17 16 12 10 10 12 14 15 15 16 14 14 14 13 15 17 19 20 19 19 17 15 16
4 9 7 11 4 4 4 4 5 7 5 10 11 5 8 9 5 5 7 10 12 10 10 9 8 9 10 10 10 13 15 15 15 14 15 17 17 16 16 16 17 17 18 17 16 16 17 19 21 21 20 19 17 15
4 12 13 3 5 5 5 5 6 11 16 19 7 4 5 9 7 10 13 13 15 13 13 12 12 14 15 15 16 16 17 18 17 18 21 23 23 21 19 22 25 24 21 19 19 20 20 19 19 21 21 21 19 17
7 19 4 4 6 6 9 14 8 10 21 14 10 7 9 9 9 15 15 17 18 18 16 14 14 19 22 21 21 22 22 23 23 25 26 28 27 25 27 28 25 20 17 17 17 18 19 20 20 19 19 19 20 20
17 9 3 4 4 4 4 14 7 13 14 17 15 10 8 5 10 14 18 19 20 21 21 23 25 25 27 27 28 29 30 28 29 26 25 24 25 27 25 21 18 18 19 19 19 19 19 19 20 20 20 20 18 18
13 10 4 2 2 5 9 11 7 8 10 10 7 15 14 9 7 11 25 25 27 30 32 33 34 36 34 35 34 33 31 28 28 27 28 28 28 25 20 19 18 17 18 19 20 21 21 22 22 22 24 24 24 23
5 6 5 6 4 4 6 8 7 2 4 5 8 14 20 11 9 14 15 20 26 30 31 31 30 29 29 32 34 34 34 31 27 26 27 26 23 21 21 20 19 19 20 20 21 21 21 22 23 23 24 26 26 26
Wind_Direction
234 232 228 227 222 222 223 223 222 226 221 220 220 220 221 220 217 209 207 208 210 227 243 222 212 200 173 185 153 156 97 200 66 122 147 213 196 219 165 168 177 168 156 191 97 114 279 155 118 180 241 315 275 210
234 231 226 221 218 220 220 220 220 223 225 216 214 215 213 216 218 212 207 208 216 219 239 238 237 231 235 230 182 176 177 186 198 100 200 109 206 157 179 230 19 235 188 184 184 211 257 193 226 233 270 306 304 268
234 232 230 218 216 214 216 217 218 220 222 212 211 216 213 210 215 216 211 206 216 239 264 256 252 246 247 243 231 198 211 206 208 209 166 184 227 133 175 236 203 241 172 217 105 246 246 260 254 259 265 267 269 281
228 230 228 216 215 213 213 211 211 215 216 209 205 212 208 207 207 210 202 200 200 191 239 252 249 239 242 241 242 239 239 242 237 209 190 149 177 189 220 238 208 196 153 184 260 284 283 283 291 308 289 276 263 259
224 227 225 212 214 212 211 209 207 209 209 205 198 202 202 203 207 209 197 195 193 190 218 289 278 248 236 234 235 235 233 239 238 239 163 216 212 163 211 57 232 195 188 180 227 248 240 291 312 322 324 324 321 270
220 229 220 213 209 210 208 207 205 204 205 200 191 195 196 200 199 198 201 213 201 204 266 315 282 250 234 229 219 220 223 222 209 205 217 226 202 190 192 237 236 238 241 247 256 275 273 282 289 290 297 304 301 297
223 224 222 214 206 207 206 206 200 200 197 194 187 190 189 192 186 184 176 157 180 183 193 287 298 234 227 219 207 210 207 200 209 223 229 231 204 198 194 255 250 253 268 271 269 277 282 277 279 290 294 299 292 297
246 237 214 211 203 203 203 202 196 193 187 184 181 176 179 184 186 194 140 132 145 156 186 229 253 293 195 174 177 172 177 189 204 225 218 217 205 220 248 244 258 262 265 267 264 264 270 277 279 279 281 284 279 284
240 252 210 206 197 199 198 194 191 185 172 175 166 168 168 181 170 171 167 165 166 165 183 215 203 225 168 145 142 148 168 143 215 226 221 183 191 226 276 270 258 260 258 265 271 268 267 268 271 274 278 278 272 273
235 229 204 197 195 194 192 187 185 172 169 167 159 152 171 158 144 139 129 154 179 210 222 229 203 225 167 156 117 120 167 208 253 234 197 218 250 264 277 278 279 275 271 271 259 261 257 261 265 268 268 272 276 279
228 227 204 194 190 188 186 180 173 164 168 155 160 145 140 136 129 150 135 146 191 226 211 209 199 174 188 125 176 190 189 215 252 263 155 259 287 339 344 345 308 278 273 273 267 268 269 268 271 273 274 273 278 286
242 220 194 190 186 181 179 173 168 167 164 158 139 133 137 157 143 161 164 184 208 219 189 167 173 184 164 170 125 156 218 200 253 152 226 259 257 340 349 350 349 341 314 299 285 274 270 267 269 271 274 278 282 283
241 199 181 181 180 176 173 171 169 160 149 133 115 154 160 165 165 199 180 195 193 183 175 152 133 153 159 191 141 145 197 236 135 220 231 226 319 346 357 359 357 359 346 327 314 309 291 271 265 264 267 271 273 272
203 182 177 176 172 172 168 167 166 159 148 151 160 158 193 192 224 188 184 164 158 153 153 146 134 151 154 163 192 181 203 262 252 241 225 218 338 352 7 7 6 2 357 345 337 327 317 306 281 264 261 262 263 263
154 163 168 168 169 166 167 169 168 162 149 158 163 200 200 205 185 189 153 138 145 145 138 123 98 139 152 204 196 139 196 236 228 237 196 299 330 351 2 7 7 4 1 356 349 340 335 326 311 291 273 262 257 257
193 175 165 167 164 164 168 163 160 155 160 170 202 113 123 136 172 168 158 140 149 149 144 128 131 197 199 175 166 200 196 218 233 187 191 337 336 346 347 347 351 356 0 360 356 352 346 341 329 313 291 271 260 254
200 179 170 165 162 161 160 150 138 142 201 206 230 207 168 161 170 169 166 167 162 159 152 156 178 185 107 202 211 189 211 188 171 174 157 333 335 338 343 344 349 345 348 358 2 359 354 352 345 329 317 292 272 257
203 172 166 154 151 148 137 135 125 179 192 177 169 190 188 174 166 169 170 169 161 166 144 172 126 170 194 203 229 209 179 202 188 193 324 339 331 331 334 325 336 339 343 345 2 4 2 358 357 354 346 336 319 284
176 156 156 164 159 143 122 158 148 155 173 169 178 170 173 159 172 177 173 177 175 160 150 157 140 201 214 216 199 166 192 199 207 247 305 324 325 322 321 325 313 320 341 348 350 354 359 6 359 353 354 359 354 336
158 161 166 156 152 130 107 120 158 155 169 170 151 157 159 164 161 171 173 175 163 156 165 197 216 212 202 217 214 220 220 203 242 280 307 316 314 311 310 314 316 316 322 332 345 348 352 353 5 358 357 1 355 344
148 146 146 145 136 86 101 139 139 144 146 150 154 147 130 149 159 174 168 173 180 208 223 231 229 224 222 220 217 208 231 262 277 300 305 302 309 310 313 314 313 315 313 319 330 338 346 351 349 354 356 353 351 345
139 142 135 137 95 91 89 91 119 119 119 133 146 148 145 153 158 177 179 195 227 226 227 235 240 240 245 247 249 254 263 273 281 283 285 292 297 304 311 314 309 302 305 309 315 322 339 342 340 345 349 356 350 340
139 141 117 77 89 72 107 121 85 96 114 147 140 109 166 172 178 163 210 221 236 239 239 244 254 262 262 266 265 262 259 260 265 265 279 287 291 299 306 312 309 306 312 322 322 322 325 331 332 330 344 354 347 341
140 104 81 83 87 100 138 100 114 116 110 140 148 183 221 171 164 205 247 240 226 234 230 245 248 250 251 253 253 253 249 246 239 256 271 275 285 297 308 333 339 340 332 323 325 328 332 326 323 319 322 332 345 340
90 50 96 69 104 109 109 121 112 92 134 171 130 222 221 164 156 215 234 249 237 237 240 241 239 239 241 246 247 242 221 220 234 247 237 236 241 267 297 314 321 342 345 339 335 332 335 336 336 324 319 323 327 323
85 132 114 140 147 129 159 133 173 157 133 159 200 144 162 130 170 236 233 246 242 231 218 219 233 235 235 233 228 224 210 218 214 222 229 246 252 275 296 308 314 316 327 323 324 326 332 339 342 343 334 318 313 316
123 184 143 138 139 136 109 106 139 128 162 170 173 164 138 177 229 245 237 226 221 210 214 232 241 224 225 223 222 222 233 219 219 226 235 249 265 280 291 300 308 322 324 314 302 304 311 320 326 329 335 335 316 307
135 164 155 166 124 142 129 139 154 182 179 163 139 178 181 195 226 210 195 191 188 187 191 196 186 183 197 197 189 186 187 198 214 235 253 262 269 277 290 298 304 306 301 299 303 302 300 301 306 313 318 322 330 311
136 149 132 137 156 185 193 172 193 194 169 168 172 184 212 213 208 183 185 185 191 198 207 206 202 201 198 198 203 209 216 225 235 252 266 274 279 284 298 302 302 302 295 285 280 282 290 298 300 296 301 305 308 313
175 167 121 144 164 207 214 192 190 184 189 186 183 182 196 216 203 195 200 204 213 232 244 244 237 226 224 224 226 231 235 239 248 258 267 273 282 293 295 299 299 297 295 291 287 285 281 280 282 287 287 291 296 302
161 169 130 167 216 195 183 184 178 191 196 205 210 214 218 226 233 227 228 232 237 243 246 247 245 240 236 238 239 242 248 251 257 265 272 280 287 290 292 288 284 282 282 284 286 288 289 284 281 279 280 281 284 289
157 172 148 155 264 170 171 168 174 196 201 203 223 225 236 246 246 246 248 250 246 244 247 249 251 253 255 255 255 256 259 261 267 273 278 279 280 281 279 279 282 281 277 275 276 279 283 283 282 277 274 274 273 277
146 153 148 137 137 188 164 159 179 163 203 211 223 222 224 230 235 247 253 254 261 267 265 266 268 268 268 266 263 262 263 265 264 261 264 267 267 268 269 269 273 276 275 271 271 271 272 275 277 278 275 272 270 270
Height
1399 1408 1418 1425 1431 1438 1447 1451 1456 1461 1466 1467 1471 1473 1475 1478 1477 1480 1482 1485 1490 1491 1490 1492 1494 1495 1495 1495 1498 1501 1504 1505 1510 1519 1523 1515 1518 1512 1511 1510 1516 1518 1530 1540 1547 1542 1514 1480 1487 1491 1473 1464 1463 1462
1387 1396 1405 1413 1420 1428 1439 1444 1448 1455 1460 1462 1467 1468 1469 1473 1476 1477 1479 1481 1485 1489 1489 1488 1491 1492 1494 1495 1494 1494 1495 1495 1497 1505 1510 1509 1508 1512 1506 1506 1508 1511 1499 1508 1506 1495 1475 1474 1469 1468 1467 1467 1465 1463
1376 1385 1393 1401 1410 1416 1428 1435 1441 1447 1454 1456 1464 1466 1469 1466 1471 1475 1475 1478 1483 1487 1487 1486 1486 1489 1491 1492 1493 1493 1493 1494 1495 1495 1496 1502 1504 1503 1508 1505 1495 1494 1491 1495 1493 1471 1470 1469 1469 1466 1466 1463 1464 1463
1365 1372 1380 1390 1399 1408 1417 1425 1433 1440 1446 1450 1458 1464 1466 1466 1466 1471 1472 1475 1480 1486 1487 1480 1481 1483 1485 1487 1488 1490 1491 1492 1493 1494 1492 1497 1501 1492 1494 1491 1492 1487 1487 1485 1485 1471 1466 1463 1461 1461 1460 1459 1458 1459
1354 1362 1367 1378 1388 1399 1409 1418 1426 1432 1439 1445 1451 1459 1461 1462 1465 1469 1469 1473 1476 1483 1483 1480 1478 1478 1479 1480 1482 1484 1486 1489 1491 1491 1491 1494 1489 1491 1489 1490 1486 1479 1475 1478 1473 1463 1464 1461 1459 1457 1457 1455 1453 1452
1342 1352 1358 1368 1378 1390 1401 1411 1421 1427 1434 1440 1446 1453 1455 1457 1462 1467 1469 1472 1472 1475 1483 1483 1477 1475 1476 1476 1476 1478 1480 1483 1486 1484 1484 1482 1482 1486 1492 1482 1458 1462 1463 1462 1460 1460 1459 1459 1457 1456 1453 1452 1450 1448
1332 1340 1348 1357 1369 1381 1394 1406 1414 1422 1429 1436 1443 1448 1451 1454 1458 1464 1466 1467 1467 1474 1480 1481 1473 1473 1473 1474 1474 1476 1477 1480 1482 1482 1479 1478 1479 1481 1480 1461 1448 1456 1457 1457 1457 1457 1452 1453 1450 1450 1448 1447 1447 1445
1328 1330 1337 1348 1359 1372 1388 1399 1409 1419 1426 1434 1441 1445 1449 1453 1457 1461 1463 1465 1467 1473 1479 1478 1473 1471 1470 1470 1472 1475 1476 1478 1478 1476 1476 1475 1475 1475 1462 1426 1444 1451 1453 1452 1449 1450 1445 1447 1443 1442 1443 1442 1441 1440
1316 1322 1326 1337 1350 1366 1380 1391 1404 1413 1425 1434 1440 1441 1447 1453 1455 1458 1462 1465 1468 1474 1473 1474 1470 1469 1466 1468 1470 1472 1475 1480 1477 1475 1472 1472 1465 1451 1430 1436 1440 1446 1446 1441 1441 1440 1437 1433 1433 1433 1434 1432 1430 1430
1312 1316 1320 1327 1344 1357 1372 1385 1398 1409 1420 1430 1440 1441 1446 1447 1452 1458 1463 1464 1467 1469 1469 1465 1463 1466 1466 1467 1469 1471 1472 1475 1475 1467 1466 1462 1436 1434 1438 1437 1437 1436 1434 1432 1430 1425 1424 1422 1422 1420 1421 1423 1423 1422
1304 1309 1314 1320 1334 1350 1366 1378 1391 1406 1414 1425 1433 1439 1443 1448 1451 1457 1457 1461 1463 1464 1459 1459 1459 1460 1463 1464 1466 1469 1474 1472 1467 1463 1467 1455 1446 1436 1435 1432 1428 1425 1424 1422 1421 1417 1417 1415 1413 1411 1411 1413 1414 1415
1293 1296 1303 1310 1325 1343 1360 1372 1384 1393 1406 1418 1424 1434 1443 1446 1448 1454 1452 1456 1456 1450 1448 1449 1453 1457 1460 1461 1462 1467 1469 1470 1461 1461 1461 1445 1440 1436 1432 1427 1423 1418 1415 1412 1410 1406 1404 1402 1400 1401 1402 1402 1403 1404
1280 1285 1295 1303 1318 1336 1353 1368 1380 1392 1404 1416 1424 1432 1436 1442 1445 1443 1440 1440 1441 1437 1438 1440 1448 1453 1460 1460 1460 1461 1466 1462 1459 1456 1446 1442 1437 1434 1427 1423 1417 1413 1409 1405 1401 1396 1392 1389 1389 1388 1388 1390 1392 1391
1263 1273 1287 1299 1316 1333 1350 1362 1373 1385 1400 1411 1417 1429 1428 1431 1423 1418 1416 1419 1421 1425 1430 1436 1445 1450 1453 1458 1457 1452 1456 1457 1452 1447 1435 1435 1435 1430 1426 1421 1414 1408 1404 1399 1394 1390 1386 1380 1377 1376 1376 1378 1378 1378
1270 1273 1285 1302 1316 1334 1345 1358 1371 1385 1396 1403 1406 1409 1412 1406 1408 1410 1411 1415 1418 1421 1427 1438 1446 1449 1451 1453 1448 1449 1451 1446 1441 1433 1431 1432 1431 1426 1422 1417 1413 1408 1403 1396 1390 1384 1378 1374 1370 1366 1367 1367 1367 1369
1281 1286 1295 1306 1319 1331 1346 1360 1372 1388 1394 1397 1398 1401 1402 1406 1408 1408 1409 1410 1415 1422 1431 1436 1442 1447 1444 1441 1445 1441 1440 1433 1430 1429 1429 1428 1427 1423 1419 1416 1412 1408 1403 1396 1389 1382 1376 1371 1366 1362 1360 1359 1360 1360
1282 1284 1295 1309 1321 1335 1345 1359 1380 1390 1394 1392 1394 1395 1396 1398 1400 1403 1406 1412 1416 1421 1427 1432 1434 1431 1436 1436 1432 1429 1426 1421 1425 1425 1423 1424 1423 1420 1418 1415 1411 1406 1403 1397 1390 1383 1377 1371 1366 1362 1357 1355 1354 1354
1281 1284 1294 1305 1317 1335 1351 1362 1375 1384 1386 1388 1392 1392 1396 1396 1397 1402 1408 1412 1415 1418 1422 1426 1427 1430 1431 1433 1423 1412 1414 1419 1420 1419 1419 1420 1419 1417 1414 1412 1408 1404 1401 1396 1389 1384 1379 1373 1367 1363 1359 1354 1351 1350
1276 1282 1290 1298 1312 1331 1353 1370 1374 1378 1382 1385 1387 1389 1392 1395 1396 1401 1405 1410 1412 1414 1418 1423 1427 1422 1414 1411 1406 1407 1412 1414 1414 1415 1415 1415 1414 1412 1410 1408 1405 1402 1397 1393 1388 1385 1381 1376 1371 1365 1360 1353 1350 1350
1273 1278 1293 1308 1322 1333 1353 1366 1372 1376 1379 1380 1383 1387 1391 1393 1396 1401 1403 1406 1410 1414 1416 1416 1408 1401 1402 1401 1402 1405 1407 1409 1410 1410 1410 1409 1408 1406 1405 1403 1400 1397 1394 1391 1385 1383 1378 1373 1370 1365 1359 1354 1352 1351
1275 1289 1300 1308 1322 1334 1349 1359 1365 1370 1375 1378 1381 1385 1390 1393 1396 1398 1401 1404 1407 1405 1400 1395 1393 1396 1398 1399 1401 1403 1404 1404 1405 1405 1403 1401 1401 1399 1398 1397 1395 1392 1390 1386 1382 1381 1378 1374 1370 1365 1360 1356 1354 1353
1287 1297 1303 1314 1325 1341 1351 1357 1360 1367 1373 1375 1382 1385 1390 1392 1393 1395 1398 1401 1396 1389 1385 1387 1387 1389 1392 1394 1395 1397 1399 1400 1400 1399 1398 1397 1394 1394 1393 1392 1390 1387 1386 1384 1381 1379 1375 1373 1370 1367 1362 1359 1356 1355
1294 1305 1311 1319 1331 1343 1357 1358 1362 1368 1373 1379 1382 1384 1386 1386 1388 1393 1393 1386 1379 1374 1376 1378 1379 1382 1383 1386 1388 1389 1391 1392 1392 1393 1392 1391 1390 1390 1389 1388 1386 1384 1382 1380 1379 1377 1374 1372 1371 1367 1364 1360 1358 1356
1302 1308 1317 1325 1336 1348 1355 1360 1364 1368 1373 1378 1380 1385 1384 1383 1386 1388 1383 1372 1365 1366 1367 1367 1371 1375 1377 1377 1377 1378 1381 1384 1386 1387 1387 1387 1387 1387 1386 1386 1384 1383 1381 1379 1378 1375 1373 1371 1369 1367 1365 1360 1356 1355
1308 1321 1324 1333 1337 1345 1354 1359 1363 1366 1373 1377 1379 1380 1378 1379 1384 1383 1372 1360 1355 1355 1357 1361 1365 1368 1368 1368 1370 1372 1375 1378 1380 1381 1382 1383 1384 1384 1384 1383 1382 1381 1379 1377 1374 1372 1371 1369 1366 1364 1361 1359 1355 1353
1317 1324 1326 1330 1338 1340 1348 1353 1358 1359 1364 1370 1371 1371 1372 1375 1378 1370 1358 1348 1349 1351 1354 1356 1358 1359 1359 1361 1364 1366 1370 1373 1375 1377 1378 1379 1380 1380 1379 1378 1377 1376 1376 1374 1372 1369 1367 1365 1363 1360 1358 1355 1353 1351
1319 1324 1325 1327 1330 1334 1339 1344 1348 1352 1358 1361 1363 1368 1370 1372 1367 1351 1344 1345 1348 1349 1351 1352 1350 1350 1352 1356 1359 1363 1365 1368 1370 1373 1374 1375 1375 1375 1375 1374 1372 1372 1370 1369 1368 1366 1364 1362 1359 1358 1356 1354 1350 1349
1315 1319 1322 1326 1326 1328 1333 1338 1341 1343 1345 1346 1353 1361 1358 1354 1346 1338 1339 1343 1345 1346 1347 1348 1348 1349 1351 1354 1356 1358 1361 1364 1366 1368 1368 1369 1369 1369 1369 1369 1368 1367 1366 1365 1363 1361 1360 1358 1356 1354 1352 1350 1349 1347
1312 1314 1319 1326 1326 1327 1325 1326 1327 1328 1331 1335 1338 1342 1340 1337 1333 1333 1337 1340 1342 1343 1344 1344 1345 1347 1349 1352 1354 1355 1357 1359 1361 1362 1362 1361 1361 1362 1363 1362 1361 1360 1358 1357 1357 1356 1355 1353 1352 1350 1348 1347 1346 1344
1308 1312 1314 1316 1319 1318 1315 1316 1318 1320 1323 1325 1327 1329 1330 1329 1329 1332 1334 1336 1337 1337 1338 1340 1342 1343 1344 1346 1347 1349 1351 1352 1353 1354 1353 1353 1353 1355 1354 1353 1352 1351 1350 1349 1349 1348 1348 1347 1347 1346 1344 1343 1341 1340
1305 1308 1311 1311 1312 1309 1312 1314 1317 1320 1322 1325 1325 1326 1326 1326 1326 1328 1329 1331 1332 1333 1333 1333 1334 1335 1337 1338 1338 1339 1340 1342 1343 1344 1344 1344 1344 1345 1345 1345 1345 1345 1344 1343 1342 1341 1341 1340 1340 1339 1338 1337 1337 1336
1302 1305 1307 1310 1309 1311 1314 1313 1316 1319 1320 1322 1323 1324 1325 1326 1324 1321 1319 1322 1323 1323 1322 1323 1323 1322 1324 1325 1327 1328 1330 1332 1333 1334 1334 1334 1334 1335 1336 1337 1337 1337 1336 1336 1335 1334 1334 1333 1332 1331 1331 1331 1330 1330
1303 1304 1305 1307 1309 1311 1312 1314 1317 1318 1319 1318 1317 1317 1317 1318 1314 1309 1309 1310 1311 1310 1309 1310 1310 1312 1313 1313 1315 1317 1319 1321 1323 1323 1324 1324 1325 1326 1327 1328 1328 1328 1328 1327 1327 1327 1326 1325 1324 1324 1323 1323 1322 1322